Weather History for KDED - October, 2012

Change the Weather History Date:

Saturday, October 27, 2012

  Actual Average (KDAB) Record (KDAB)
Temperature  
Mean Temperature 70 °F 71 °F  
Max Temperature 73 °F 80 °F 89 °F (2010)
Min Temperature 68 °F 63 °F 42 °F (1980)
Degree Days  
Heating Degree Days 0 1  
Month to date heating degree days 3  
Since 1 July heating degree days 3  
Cooling Degree Days 6 7  
Month to date cooling degree days 261  
Year to date cooling degree days 2771  
Growing Degree Days 20 (Base 50)    
Moisture  
Dew Point 62 °F    
Average Humidity 76    
Maximum Humidity 83    
Minimum Humidity 69    
Precipitation  
Precipitation 0.00 in 0.10 in 0.91 in (1997)
Month to date precipitation 3.83  
Year to date precipitation 43.92  
Sea Level Pressure  
Sea Level Pressure 29.60 in    
Wind  
Wind Speed 14 mph ()    
Max Wind Speed 23 mph    
Max Gust Speed 29 mph    
Visibility 8.7 miles    
Events      
T = Trace of Precipitation, MM = Missing Value Source: Averaged Metar Reports

Daily Weather History Graph

Daily Weather History Graph

Search for Another Location

Airport or City:

Trip Planner

Search our weather history database for the weather conditions in past years. The results will help you decide how hot, cold, wet, or windy it might be!

Date:

Astronomy

Oct. 27, 2012 Rise Set
Actual Time 7:34 AM EDT 6:42 PM EDT
Civil Twilight 7:10 AM EDT 7:07 PM EDT
Nautical Twilight 6:42 AM EDT 7:35 PM EDT
Astronomical Twilight 6:14 AM EDT 8:02 PM EDT
Moon 5:23 PM EDT (10/27) 5:35 AM EDT (10/27)
Length of Visible Light 11h 57m
Length of Day
11h 08m
Waxing Gibbous, 96% of the Moon is Illuminated
Oct 27
Waxing Gibbous
Oct 29
Full
Nov 6
Last Quarter
Nov 13
New
Nov 20
First Quarter

Hourly Weather History & Observations

Time (EDT) Temp. Dew Point Humidity Pressure Visibility Wind Dir Wind Speed Gust Speed Precip Events Conditions
12:15 AM 73.4 °F 64.4 °F 73% 29.63 in 8.0 mi NNW 15.0 mph 24.2 mph N/A   Overcast
12:35 AM 73.4 °F 64.4 °F 73% 29.62 in 8.0 mi NNW 17.3 mph 27.6 mph N/A   Mostly Cloudy
12:55 AM 73.4 °F 64.4 °F 73% 29.62 in 8.0 mi NNW 15.0 mph 20.7 mph N/A   Mostly Cloudy
1:15 AM 73.4 °F 64.4 °F 73% 29.61 in 8.0 mi NNW 17.3 mph 28.8 mph N/A   Overcast
1:35 AM 73.4 °F 64.4 °F 73% 29.59 in 8.0 mi NNW 17.3 mph 24.2 mph N/A   Mostly Cloudy
1:55 AM 73.4 °F 64.4 °F 73% 29.59 in 7.0 mi NNW 13.8 mph 24.2 mph N/A   Mostly Cloudy
2:15 AM 71.6 °F 64.4 °F 78% 29.59 in 8.0 mi NNW 12.7 mph 23.0 mph N/A   Mostly Cloudy
2:35 AM 71.6 °F 64.4 °F 78% 29.58 in 8.0 mi NNW 15.0 mph 27.6 mph N/A   Mostly Cloudy
2:55 AM 71.6 °F 64.4 °F 78% 29.58 in 8.0 mi NW 15.0 mph 20.7 mph N/A   Mostly Cloudy
3:15 AM 71.6 °F 64.4 °F 78% 29.56 in 9.0 mi NW 18.4 mph 25.3 mph N/A   Mostly Cloudy
3:35 AM 71.6 °F 64.4 °F 78% 29.56 in 8.0 mi NW 15.0 mph - N/A   Mostly Cloudy
3:55 AM 71.6 °F 62.6 °F 73% 29.55 in 8.0 mi NW 18.4 mph 21.9 mph N/A   Overcast
4:15 AM 71.6 °F 62.6 °F 73% 29.54 in 9.0 mi NW 17.3 mph 20.7 mph N/A   Overcast
4:35 AM 71.6 °F 62.6 °F 73% 29.54 in 8.0 mi NW 17.3 mph 21.9 mph N/A   Mostly Cloudy
4:55 AM 69.8 °F 62.6 °F 78% 29.54 in 10.0 mi NW 16.1 mph 26.5 mph N/A   Mostly Cloudy
5:15 AM 69.8 °F 62.6 °F 78% 29.54 in 8.0 mi NW 15.0 mph 21.9 mph N/A   Scattered Clouds
5:55 AM 69.8 °F 62.6 °F 78% 29.55 in 9.0 mi NW 16.1 mph 23.0 mph N/A   Overcast
6:15 AM 69.8 °F 62.6 °F 78% 29.55 in 9.0 mi NW 16.1 mph 24.2 mph N/A   Mostly Cloudy
6:35 AM 69.8 °F 62.6 °F 78% 29.55 in 9.0 mi NW 18.4 mph 23.0 mph N/A   Mostly Cloudy
6:55 AM 68.0 °F 62.6 °F 83% 29.56 in 9.0 mi NW 15.0 mph 23.0 mph N/A   Partly Cloudy
7:15 AM 68.0 °F 60.8 °F 78% 29.56 in 9.0 mi NW 18.4 mph 25.3 mph N/A   Mostly Cloudy
7:35 AM 68.0 °F 60.8 °F 78% 29.57 in 8.0 mi NW 16.1 mph 24.2 mph N/A   Mostly Cloudy
7:55 AM 68.0 °F 60.8 °F 78% 29.58 in 9.0 mi NW 15.0 mph 26.5 mph N/A   Mostly Cloudy
8:15 AM 68.0 °F 60.8 °F 78% 29.59 in 8.0 mi NW 18.4 mph 26.5 mph N/A   Overcast
8:35 AM 68.0 °F 60.8 °F 78% 29.60 in 9.0 mi NW 16.1 mph 25.3 mph N/A   Overcast
8:55 AM 68.0 °F 60.8 °F 78% 29.61 in 9.0 mi NW 15.0 mph 27.6 mph N/A   Overcast
9:15 AM 68.0 °F 60.8 °F 78% 29.60 in 9.0 mi NW 16.1 mph 23.0 mph N/A   Mostly Cloudy
9:35 AM 69.8 °F 60.8 °F 73% 29.60 in 10.0 mi NW 19.6 mph 27.6 mph N/A   Scattered Clouds
9:55 AM 69.8 °F 62.6 °F 78% 29.61 in 8.0 mi NW 18.4 mph 28.8 mph N/A   Partly Cloudy
10:15 AM 69.8 °F 62.6 °F 78% 29.62 in 8.0 mi NW 19.6 mph 27.6 mph N/A   Partly Cloudy
10:35 AM 69.8 °F 62.6 °F 78% 29.62 in 9.0 mi NW 17.3 mph 25.3 mph N/A   Partly Cloudy
10:55 AM 69.8 °F 62.6 °F 78% 29.63 in 9.0 mi NNW 18.4 mph 25.3 mph N/A   Mostly Cloudy
11:15 AM 69.8 °F 62.6 °F 78% 29.62 in 9.0 mi NW 19.6 mph 26.5 mph N/A   Mostly Cloudy
11:55 AM 69.8 °F 62.6 °F 78% 29.63 in 8.0 mi NW 15.0 mph 24.2 mph N/A   Overcast
12:15 PM 69.8 °F 62.6 °F 78% 29.63 in 9.0 mi NW 20.7 mph 27.6 mph N/A   Overcast
12:35 PM 69.8 °F 62.6 °F 78% 29.63 in 10.0 mi NW 16.1 mph 21.9 mph N/A   Overcast
12:55 PM 69.8 °F 62.6 °F 78% 29.63 in 8.0 mi NW 13.8 mph 21.9 mph N/A   Overcast
1:15 PM 69.8 °F 62.6 °F 78% 29.63 in 9.0 mi NW 17.3 mph 25.3 mph N/A   Overcast
1:35 PM 69.8 °F 62.6 °F 78% 29.62 in 8.0 mi WNW 18.4 mph - N/A   Overcast
2:15 PM 71.6 °F 62.6 °F 73% 29.60 in 8.0 mi NW 23.0 mph 27.6 mph N/A   Mostly Cloudy
2:55 PM 71.6 °F 60.8 °F 69% 29.59 in 9.0 mi NW 16.1 mph 21.9 mph N/A   Mostly Cloudy
3:15 PM 71.6 °F 60.8 °F 69% 29.58 in 9.0 mi NW 17.3 mph 24.2 mph N/A   Mostly Cloudy
3:35 PM 71.6 °F 62.6 °F 73% 29.58 in 7.0 mi WNW 15.0 mph 24.2 mph N/A   Partly Cloudy
3:55 PM 71.6 °F 60.8 °F 69% 29.58 in 9.0 mi WNW 15.0 mph 24.2 mph N/A   Clear
4:15 PM 71.6 °F 60.8 °F 69% 29.58 in 9.0 mi WNW 16.1 mph 23.0 mph N/A   Clear
4:35 PM 71.6 °F 62.6 °F 73% 29.59 in 9.0 mi NW 16.1 mph 21.9 mph N/A   Partly Cloudy
4:55 PM 71.6 °F 62.6 °F 73% 29.59 in 8.0 mi NW 11.5 mph 23.0 mph N/A   Mostly Cloudy
5:15 PM 71.6 °F 62.6 °F 73% 29.60 in 9.0 mi NW 12.7 mph - N/A   Overcast
5:35 PM 71.6 °F 62.6 °F 73% 29.60 in 9.0 mi WNW 16.1 mph 21.9 mph N/A   Mostly Cloudy
5:55 PM 71.6 °F 62.6 °F 73% 29.60 in 9.0 mi WNW 16.1 mph 25.3 mph N/A   Partly Cloudy
6:15 PM 69.8 °F 62.6 °F 78% 29.61 in 9.0 mi WNW 13.8 mph - N/A   Partly Cloudy
6:35 PM 69.8 °F 62.6 °F 78% 29.62 in 9.0 mi WNW 12.7 mph 19.6 mph N/A   Clear
6:55 PM 69.8 °F 62.6 °F 78% 29.62 in 10.0 mi NW 10.4 mph - N/A   Clear
7:15 PM 69.8 °F 62.6 °F 78% 29.63 in 9.0 mi WNW 8.1 mph - N/A   Clear
7:35 PM 69.8 °F 62.6 °F 78% 29.63 in 9.0 mi WNW 9.2 mph - N/A   Clear
7:55 PM 69.8 °F 62.6 °F 78% 29.64 in 10.0 mi WNW 10.4 mph - N/A   Clear
8:15 PM 69.8 °F 62.6 °F 78% 29.64 in 8.0 mi WNW 9.2 mph - N/A   Clear
8:35 PM 69.8 °F 62.6 °F 78% 29.65 in 9.0 mi WNW 8.1 mph - N/A   Clear
8:55 PM 69.8 °F 62.6 °F 78% 29.65 in 9.0 mi WNW 10.4 mph - N/A   Clear
9:15 PM 69.8 °F 62.6 °F 78% 29.66 in 10.0 mi WNW 10.4 mph - N/A   Clear
9:35 PM 69.8 °F 62.6 °F 78% 29.66 in 9.0 mi WNW 9.2 mph 18.4 mph N/A   Clear
9:55 PM 69.8 °F 60.8 °F 73% 29.67 in 9.0 mi WNW 12.7 mph - N/A   Clear
10:15 PM 69.8 °F 60.8 °F 73% 29.67 in 10.0 mi WNW 9.2 mph - N/A   Clear
10:35 PM 69.8 °F 60.8 °F 73% 29.68 in 10.0 mi WNW 8.1 mph - N/A   Clear
10:55 PM 69.8 °F 60.8 °F 73% 29.68 in 10.0 mi WNW 9.2 mph - N/A   Clear